{"data":{"norad_id":29505,"epoch":"2026-05-25T04:47:53.328192Z","epoch_age_seconds":68095,"freshness":"FRESH","line1":"1 29505U 06046A   26145.19992278  .00005348  00000+0  27703-3 0  9993","line2":"2 29505  97.6375 186.0976 0002593 187.2213 172.8983 15.16629714 68789","mean_motion":15.16629714,"eccentricity":0.0002593,"inclination_deg":97.6375,"raan_deg":186.0976,"arg_perigee_deg":187.2213,"mean_anomaly_deg":172.8983,"bstar":0.00027703,"rev_number":6878,"period_min":94.947368280297,"perigee_km":514.24765990886,"apogee_km":517.82297767338,"semimajor_km":6894.1723187911,"source":"CELESTRAK","updated_at":"2026-05-25T13:38:24.638919Z"}}